Left ArrowRight Arrow

30.00354, -91.81873

Hourly Observations for May 25, 2024

Temp ( °F °C ) Dew Point ( °F °C ) Humidity (%) Winds ( mph kmh ) Pressure ( in mb ) Visibility ( mi km ) Precip ( " mm )
12:03 am 00:03 Mostly Clear with Mist and Fog 79 26.1 76 24.4 90 90 SSE 7 11 29.88 1012 6 10 0.00 0.00
12:53 am 00:53 Clear with Mist and Fog 79 26.1 76 24.4 90 90 S 7 11 29.86 1011 6 10 0.00 0.00
1:53 am 01:53 Clear with Mist and Fog 78 25.6 76 24.4 93 93 S 7 11 29.84 1011 6 10 0.00 0.00
2:53 am 02:53 Clear with Mist and Fog 78 25.6 76 24.4 93 93 S 7 11 29.83 1010 6 10 0.00 0.00
3:53 am 03:53 Clear with Mist and Fog 78 25.6 76 24.4 93 93 SSE 7 11 29.84 1010 6 10 0.00 0.00
4:53 am 04:53 Clear with Mist and Fog 77 25 75 23.9 94 94 ESE 3 6 29.86 1011 6 10 0.00 0.00
5:53 am 05:53 Clear with Mist and Fog 75 23.9 74 23.3 96 96 SSE 3 6 29.85 1011 4 6 0.00 0.00
6:53 am 06:53 Partly Cloudy with Mist and Fog 76 24.4 75 23.9 97 97 SSW 3 6 29.88 1012 4 6 0.00 0.00
7:53 am 07:53 Hazy 81 27.2 76 24.4 85 85 SSW 9 15 29.88 1012 6 10 0.00 0.00
8:53 am 08:53 Mostly Sunny 83 28.3 76 24.4 79 79 S 13 20 29.90 1013 7 11 0.00 0.00
9:53 am 09:53 Mostly Sunny 85 29.4 75 23.9 72 72 S 12 19 29.90 1013 8 13 0.00 0.00
10:53 am 10:53 Partly Cloudy 86 30 75 23.9 70 70 S 12 19 29.91 1013 9 14 0.00 0.00
11:53 am 11:53 Sunny 87 30.6 76 24.4 70 70 SSW 10 17 29.90 1012 9 14 0.00 0.00
12:53 pm 12:53 Mostly Sunny 88 31.1 76 24.4 68 68 S 13 20 29.89 1012 9 14 0.00 0.00
1:43 pm 13:43 Mostly Cloudy 88 31.1 76 24.4 68 68 S 14 22 29.88 1012 9 14 0.00 0.00
1:53 pm 13:53 Mostly Cloudy 89 31.7 77 25 68 68 S 13 20 29.88 1012 9 14 0.00 0.00
2:36 pm 14:36 Partly Cloudy 89 31.7 75 23.9 63 63 S 15 24 29.88 1012 9 14 0.00 0.00
2:53 pm 14:53 Mostly Sunny 88 31.1 75 23.9 66 66 S 13 20 29.87 1012 9 14 0.00 0.00
3:53 pm 15:53 Mostly Sunny 88 31.1 74 23.3 63 63 S 14 22 29.85 1011 9 14 0.00 0.00
4:53 pm 16:53 Mostly Sunny 87 30.6 75 23.9 68 68 S 16 26 29.83 1010 8 13 0.00 0.00
5:40 pm 17:40 Mostly Cloudy 86 30 75 23.9 70 70 S 14 22 29.83 1010 8 13 0.00 0.00
5:53 pm 17:53 Mostly Cloudy 86 30 75 23.9 70 70 SSE 13 20 29.83 1010 8 13 0.00 0.00
6:05 pm 18:05 Mostly Sunny 85 29.4 74 23.3 70 70 S 13 20 29.82 1010 8 13 0.00 0.00
6:53 pm 18:53 Mostly Sunny 83 28.3 74 23.3 74 74 S 14 22 29.82 1010 8 13 0.00 0.00
7:53 pm 19:53 Sunny 82 27.8 75 23.9 79 79 SSE 9 15 29.83 1010 7 11 0.00 0.00
8:53 pm 20:53 Clear 80 26.7 75 23.9 85 85 S 9 15 29.85 1011 7 11 0.00 0.00
9:53 pm 21:53 Clear with Mist and Fog 77 25 75 23.9 94 94 SE 6 9 29.86 1011 6 10 0.00 0.00
10:53 pm 22:53 Clear with Mist and Fog 77 25 75 23.9 94 94 SE 5 7 29.87 1011 5 8 0.00 0.00
11:53 pm 23:53 Mostly Clear with Mist and Fog 76 24.4 75 23.9 97 97 SE 6 9 29.85 1011 5 8 0.00 0.00

Powered by Vaisala Xweather